THORAD AGENA D DEB, 4928

Orbit data source: Space-Track

THORAD AGENA D DEB, 4928 is space debris in SSO originally from a launch on Wed, 08 Apr 1970 UTC launched from the Air Force Western Test Range (AFWTR). Debris objects in space refer to the collection of defunct objects orbiting the Earth. Examples of debris include non-operational satellites, rocket bodies, and fragments generated from explosions, collisions, or faulty payload assembly.

Loading next visibility...
Identifier
4928, 1970-025FU
Orbit
SSO
Country
Flag of USUS
Related business
Manufacturer
Unknown
Mission
Spacecraft
Bus & Motor
Unknown
Mass
Unknown
Launch date (UTC)
1970-04-08 (56 years ago)
Launch vehicle
Unknown
Launch site
Air Force Western Test Range (AFWTR)
Object type
Payload
Rocket body
Debris
Shape & HBR
Unknown shape, 0.1 m
Radar Cross Section
Medium (>0.1 m² and <1 m²)

Expand to show TLE details & history
Last TLE update: 17 hours ago

TLE from 17 hours ago
0 THORAD AGENA D DEB
1 04928U 70025FU  25292.27546612 -.00000384  00000-0 -11559-2 0  9990
2 04928  99.7454 235.7558 0433087 116.3467  47.7986 12.73275931568247
Epoch: 2025-10-19T06:36Z
TLE epoch observation values (Epoch: 2025-10-19T06:36:40.272Z)
Latitude
11.8263°
Longitude
-69.35608°
Altitude
1,153.473 km
Speed
7.378 km/s
True Right ascension
03h 51m 13s
True Declination
11° 45' 40"
Sunlit
Object was in full shadow at epoch
Visualization orbit readout
Latitude
Unknown
Longitude
Unknown
Altitude
Unknown
Speed
Unknown
Apparent Right ascension
Unknown
Apparent Declination
Unknown
Sunlit
N/A
Visualization observer readout
Local Sidereal Time
18:34:05
Azimuth
Unknown
Elevation
Unknown
Doppler factor
Unknown
Orbital elements
Apogee altitude
1,701.413 km
Perigee altitude
1,030.634 km
Semi-major axis
7,744.161 km
Eccentricity
0.04331
Inclination
99.7454°
RAAN
235.7558°
Arg. of periapsis
116.3467°
True anomaly
51.61068°
Mean anomaly
47.7986°
Eccentric anomaly
49.69083°
Mean motion
3.1848 °/min
Orbital period
113.04 mins
BSTAR
-0.0011559
Loading maneuver chart data...
Computing Atmospheric mass density...

Documentation

Showing up to 5 results
|